Brno, Czech Republic

10:46 PM CEST on June 22, 2017 (GMT +0200)
Turany

Weather History for LKTB - November, 2011

Change the Weather History Date:

Thursday, November 3, 2011

  Actual Average Record
Temperature  
Mean Temperature 45 °F -  
Max Temperature 53 °F 43 °F - ()
Min Temperature 37 °F 33 °F - ()
Degree Days  
Heating Degree Days 20    
Moisture  
Dew Point 38 °F    
Average Humidity 79    
Maximum Humidity 93    
Minimum Humidity 47    
Precipitation  
Precipitation 0.00 in 0.05 in - ()
Sea Level Pressure  
Sea Level Pressure 30.00 in    
Wind  
Wind Speed 6 mph ()    
Max Wind Speed 16 mph    
Max Gust Speed 28 mph    
Visibility 2.3 miles    
Events Fog    
T = Trace of Precipitation, MM = Missing Value Source: Averaged Metar Reports

Daily Weather History Graph

Daily Weather History Graph

Search for Another Location

Airport or City:

Trip Planner

Search our weather history database for the weather conditions in past years. The results will help you decide how hot, cold, wet, or windy it might be!

Date:

Astronomy

Nov. 03, 2011 Rise Set
Actual Time 6:43 AM CET 4:29 PM CET
Civil Twilight 6:09 AM CET 5:03 PM CET
Nautical Twilight 5:32 AM CET 5:40 PM CET
Astronomical Twilight 4:55 AM CET 6:17 PM CET
Moon 1:17 PM CET (11/3) No Moon Set
Length of Visible Light 10h 53m
Length of Day
9h 46m
First Quarter, 58% of the Moon is Illuminated
Nov 3
First Quarter
Nov 10
Full
Nov 18
Last Quarter
Nov 25
New
Dec 2
First Quarter

Hourly Weather History & Observations

Time (CET) Temp. Windchill Dew Point Humidity Pressure Visibility Wind Dir Wind Speed Gust Speed Precip Events Conditions
12:00 AM 37.4 °F 33.8 °F 35.6 °F 93% 30.06 in 1.7 mi East 4.6 mph - N/A   Mist
12:30 AM 41.0 °F 39.0 °F 37.4 °F 87% 30.06 in 1.7 mi ENE 3.5 mph - N/A   Mist
1:00 AM 42 °F - 39 °F 83% 30.09 in 2 mi East 4.5 mph - -   Mist
1:00 AM 41.0 °F 38.0 °F 37.4 °F 87% 30.06 in 1.7 mi ENE 4.6 mph - N/A   Mist
1:30 AM 42.8 °F 39.3 °F 37.4 °F 81% 30.04 in 1.7 mi East 5.8 mph - N/A   Mist
2:00 AM 41.0 °F 37.1 °F 35.6 °F 81% 30.04 in 1.8 mi East 5.8 mph - N/A   Mist
2:30 AM 39.2 °F 35.9 °F 37.4 °F 93% 30.04 in 1.8 mi East 4.6 mph - N/A   Mist
3:00 AM 39.2 °F 34.2 °F 35.6 °F 87% 30.04 in 1.7 mi East 6.9 mph - N/A   Mist
3:30 AM 39.2 °F 35.0 °F 35.6 °F 87% 30.04 in 1.7 mi East 5.8 mph - N/A   Mist
4:00 AM 39.2 °F 35.0 °F 35.6 °F 87% 30.04 in - East 5.8 mph - N/A   Mist
4:30 AM 39.2 °F 35.0 °F 35.6 °F 87% 30.04 in - East 5.8 mph - N/A   Mist
5:00 AM 41.0 °F 38.0 °F 37.4 °F 87% 30.04 in 1.8 mi East 4.6 mph - N/A   Mist
5:30 AM 39.2 °F 35.9 °F 35.6 °F 87% 30.01 in 1.7 mi East 4.6 mph - N/A   Mist
6:00 AM 39.2 °F 37.0 °F 37.4 °F 93% 30.01 in - East 3.5 mph - N/A   Mist
6:30 AM 41.0 °F 39.0 °F 37.4 °F 87% 30.01 in 1.6 mi East 3.5 mph - N/A   Mist
7:00 AM 38 °F - 35 °F 86% 30.07 in 1 mi SE 2.2 mph - -   Mist
7:00 AM 37.4 °F - 35.6 °F 93% 30.04 in 1.2 mi Variable 2.3 mph - N/A   Mist
7:30 AM 39.2 °F 37.0 °F 35.6 °F 87% 30.04 in 0.9 mi ESE 3.5 mph - N/A   Partly Cloudy
8:00 AM 39.2 °F - 35.6 °F 87% 30.04 in 0.7 mi Variable 2.3 mph - N/A   Partly Cloudy
8:30 AM 41.0 °F - 37.4 °F 87% 30.04 in 0.6 mi Variable 2.3 mph - N/A   Partly Cloudy
9:00 AM 42.8 °F - 39.2 °F 87% 30.04 in 0.5 mi Variable 2.3 mph - N/A Fog Fog
9:30 AM 42.8 °F - 39.2 °F 87% 30.04 in 0.7 mi Variable 1.2 mph - N/A   Partly Cloudy
9:47 AM 44.6 °F - 39.2 °F 81% 30.04 in 0.9 mi Variable 2.3 mph - N/A   Partly Cloudy
10:00 AM 44.6 °F - 39.2 °F 81% 30.04 in 1.1 mi Variable 2.3 mph - N/A   Mist
10:30 AM 46.4 °F - 39.2 °F 76% 30.04 in 1.5 mi Variable 2.3 mph - N/A   Mist
11:00 AM 48.2 °F - 41.0 °F 76% 30.01 in 1.9 mi SSE 6.9 mph - N/A   Mist
11:30 AM 51.8 °F - 41.0 °F 67% 30.01 in 2.2 mi SE 12.7 mph - N/A   Mist
12:00 PM 51.8 °F - 39.2 °F 62% 30.01 in 2.5 mi SSE 13.8 mph - N/A   Haze
12:30 PM 51.8 °F - 39.2 °F 62% 29.98 in 2.8 mi SE 13.8 mph - N/A   Haze
1:00 PM 53 °F - 38 °F 47% 30.00 in 3 mi SE 13.4 mph - -   Haze
1:00 PM 53.6 °F - 39.2 °F 58% 29.98 in 3.1 mi SE 13.8 mph - N/A   Haze
1:30 PM 53.6 °F - 37.4 °F 54% 29.98 in 3.7 mi SE 16.1 mph - N/A   Unknown
2:00 PM 53.6 °F - 37.4 °F 54% 29.98 in 3.7 mi SSE 13.8 mph - N/A   Unknown
2:30 PM 53.6 °F - 37.4 °F 54% 29.95 in 3.7 mi SE 15.0 mph - N/A   Unknown
3:00 PM 53.6 °F - 39.2 °F 58% 29.95 in 4.3 mi SE 15.0 mph - N/A   Unknown
3:30 PM 51.8 °F - 39.2 °F 62% 29.95 in 3.7 mi SSE 13.8 mph - N/A   Unknown
4:00 PM 51.8 °F - 39.2 °F 62% 29.95 in 3.7 mi SSE 12.7 mph - N/A   Unknown
4:06 PM 46.4 °F 41.9 °F 39.2 °F 76% 29.95 in 3.1 mi SSW 9.2 mph - N/A   Mist
4:30 PM 44.6 °F 40.2 °F 39.2 °F 81% 29.95 in - WSW 8.1 mph - N/A   Mist
5:00 PM 42.8 °F 40.1 °F 39.2 °F 87% 29.95 in 1.9 mi West 4.6 mph - N/A   Mist
5:30 PM 42.8 °F 40.1 °F 39.2 °F 87% 29.95 in 2.2 mi WSW 4.6 mph - N/A   Mist
6:00 PM 41.0 °F - 37.4 °F 87% 29.95 in 1.9 mi Variable 1.2 mph - N/A   Mist
6:30 PM 42.8 °F - 39.2 °F 87% 29.95 in 1.7 mi Calm Calm - N/A   Partly Cloudy
7:00 PM 42 °F - 39 °F 83% 30.01 in 2 mi North 2.2 mph - -   Mist
7:00 PM 41.0 °F - 39.2 °F 93% 29.98 in 1.7 mi NW 2.3 mph - N/A   Partly Cloudy
7:30 PM 41.0 °F - 39.2 °F 93% 29.98 in 1.9 mi Variable 2.3 mph - N/A   Partly Cloudy
8:00 PM 42.8 °F 40.1 °F 39.2 °F 87% 29.95 in 1.6 mi NE 4.6 mph - N/A   Scattered Clouds
8:30 PM 42.8 °F 39.3 °F 39.2 °F 87% 29.95 in 1.6 mi ENE 5.8 mph - N/A   Overcast
9:00 PM 42.8 °F 38.0 °F 39.2 °F 87% 29.95 in 2.2 mi East 8.1 mph - N/A   Overcast
9:30 PM 44.6 °F 39.7 °F 39.2 °F 81% 29.95 in 3.1 mi East 9.2 mph - N/A   Overcast
10:00 PM 46.4 °F 41.1 °F 39.2 °F 76% 29.95 in 4.3 mi SE 11.5 mph - N/A   Overcast
10:22 PM 46.4 °F 39.8 °F 39.2 °F 76% 29.95 in 4.3 mi ESE 16.1 mph 27.6 mph N/A   Overcast
10:30 PM 46.4 °F 39.8 °F 39.2 °F 76% 29.95 in 4.3 mi ESE 16.1 mph 27.6 mph N/A   Overcast
11:00 PM 46.4 °F 40.1 °F 39.2 °F 76% 29.92 in 5.0 mi SE 15.0 mph - N/A   Overcast
11:30 PM 46.4 °F 40.1 °F 39.2 °F 76% 29.92 in 5.0 mi ESE 15.0 mph - N/A   Overcast